Location: Dampvalley
(47.9094°N, 6.1967°E)
Time: 01:19:40
(UTC+00:00)

SO-50 - Pass Details

Date: 04 December 2021
Orbit: 595 x 689 km, 64.6° (Epoch: 24 January)

Event Time Altitude Azimuth Distance (km) Brightness Sun altitude
Rises 16:15:09 0° 321° (NW) 3,016 ? -5.4°
Reaches altitude 10° 16:17:27 10° 322° (NW) 2,112 ? -5.8°
Maximum altitude 16:22:17 87° 52° (NE) 690 ? -6.5°
Drops below altitude 10° 16:27:10 10° 142° (SE) 2,133 ? -7.2°
Sets 16:29:30 0° 142° (SE) 3,048 ? -7.6°
